Date String (YYYY-MM-DD hh:mm:ss) UTC,Instrument flags,Ambient pressure (hPa),Sample flow (lpm),Bypass flow (lpm),Sample temperature (°C),Ambient temperature (°C),ASC tube jacket temperature (°C),LED temperature (°C),Box temperature (°C),Sample RH (%),Span deviation,Mass concentration (μg/m³),Mass concentration (μg/m³),Mass concentration (μg/m³)
DateTimeUTC,F1_M11,P_M11,Q1_M11,Q2_M11,T1_M11,T2_M11,T3_M11,T4_M11,T5_M11,U1_M11,ZSPAN_M11,X0_M11,X2_M11,X1_M11
2022-01-15 17:00:00,,0833.5,4.99,0.00,21.9,22.1,00.0,30.9,23.6,09.1,0000.0,0004.51,0002.47,0002.05
2022-01-15 17:01:00,,0833.5,5.00,0.00,21.9,21.9,00.0,30.9,23.6,09.3,0000.0,0004.54,0002.50,0002.06
2022-01-15 17:02:00,,0833.6,5.00,0.00,21.9,21.7,00.0,30.9,23.5,09.3,0000.0,0004.58,0002.54,0002.06
2022-01-15 17:03:00,,0833.6,5.00,0.00,21.9,21.6,00.0,30.9,23.5,09.2,0000.0,0004.59,0002.56,0002.07
2022-01-15 17:04:00,,0833.6,5.00,0.00,21.8,21.5,00.0,30.9,23.4,09.3,0000.0,0004.72,0002.63,0002.11
2022-01-15 17:05:00,,0833.6,5.01,0.00,21.8,21.4,00.0,30.9,23.4,09.3,0000.0,0004.84,0002.68,0002.13
2022-01-15 17:06:00,,0833.5,5.00,0.00,21.8,21.4,00.0,30.9,23.4,09.4,0000.0,0004.95,0002.68,0002.14
2022-01-15 17:07:00,,0833.5,5.00,0.00,21.8,21.3,00.0,30.8,23.4,09.3,0000.0,0005.36,0002.65,0002.16
2022-01-15 17:08:00,,0833.5,5.00,0.00,21.8,21.3,00.0,30.8,23.4,09.4,0000.0,0006.21,0002.74,0002.21
2022-01-15 17:09:00,,0833.5,5.00,0.00,21.7,21.2,00.0,30.8,23.4,09.3,0000.0,0007.06,0002.85,0002.25
2022-01-15 17:10:00,,0833.5,4.99,0.00,21.7,21.2,00.0,30.8,23.3,09.5,0000.0,0007.80,0002.93,0002.28
2022-01-15 17:11:00,,0833.5,5.01,0.00,21.7,21.2,00.0,30.8,23.3,09.5,0000.0,0007.70,0003.00,0002.31
2022-01-15 17:12:00,,0833.5,4.99,0.00,21.7,21.1,00.0,30.8,23.3,09.6,0000.0,0007.71,0003.05,0002.36
2022-01-15 17:13:00,,0833.4,5.00,0.00,21.6,21.1,00.0,30.8,23.3,09.5,0000.0,0007.85,0003.09,0002.42
2022-01-15 17:14:00,,0833.5,5.00,0.00,21.6,21.1,00.0,30.8,23.3,09.6,0000.0,0008.06,0003.16,0002.46
2022-01-15 17:15:00,,0833.5,5.01,0.00,21.6,21.1,00.0,30.7,23.3,09.7,0000.0,0008.16,0003.21,0002.51
2022-01-15 17:16:00,,0833.4,5.00,0.00,21.6,21.1,00.0,30.7,23.3,09.7,0000.0,0008.12,0003.21,0002.52
2022-01-15 17:17:00,,0833.4,5.00,0.00,21.6,21.1,00.0,30.7,23.2,09.5,0000.0,0008.03,0003.22,0002.56
2022-01-15 17:18:00,,0833.3,5.00,0.00,21.6,21.0,00.0,30.7,23.2,09.6,0000.0,0007.93,0003.25,0002.60
2022-01-15 17:19:00,,0833.2,4.99,0.00,21.6,21.0,00.0,30.7,23.2,09.6,0000.0,0007.30,0003.24,0002.61
2022-01-15 17:20:00,,0833.2,5.00,0.00,21.6,21.0,00.0,30.7,23.2,09.6,0000.0,0007.13,0003.21,0002.61
2022-01-15 17:21:00,,0833.1,5.01,0.00,21.5,20.9,00.0,30.7,23.2,09.8,0000.0,0005.75,0003.18,0002.62
2022-01-15 17:22:00,,0833.1,5.00,0.00,21.5,20.9,00.0,30.7,23.1,09.9,0000.0,0005.79,0003.20,0002.64
2022-01-15 17:23:00,,0833.1,4.99,0.00,21.5,20.9,00.0,30.6,23.1,09.7,0000.0,0006.33,0003.20,0002.65
2022-01-15 17:24:00,,0833.1,4.99,0.00,21.5,20.9,00.0,30.6,23.1,09.9,0000.0,0005.95,0003.18,0002.65
2022-01-15 17:25:00,,0833.1,5.02,0.00,21.5,20.9,00.0,30.6,23.1,10.0,0000.0,0005.63,0003.16,0002.67
2022-01-15 17:26:00,,0833.1,4.98,0.00,21.4,20.8,00.0,30.6,23.1,10.0,0000.0,0005.52,0003.13,0002.68
2022-01-15 17:27:00,,0833.2,5.00,0.00,21.5,21.4,00.0,30.6,23.2,09.9,0000.0,0006.17,0003.16,0002.72
2022-01-15 17:28:00,,0833.1,5.00,0.00,21.7,22.5,00.0,30.6,23.6,09.9,0000.0,0006.35,0003.17,0002.73
2022-01-15 17:29:00,,0833.1,5.01,0.00,21.8,23.0,00.0,30.7,23.9,09.8,0000.0,0006.37,0003.17,0002.75
2022-01-15 17:30:00,,0833.1,5.00,0.00,21.9,22.8,00.0,30.7,23.8,09.7,0000.0,0006.51,0003.20,0002.78
2022-01-15 17:31:00,,0833.1,4.99,0.00,21.9,22.4,00.0,30.7,23.7,09.8,0000.0,0006.05,0003.24,0002.83
2022-01-15 17:32:00,,0833.1,5.00,0.00,21.8,22.1,00.0,30.8,23.6,09.8,0000.0,0006.26,0003.27,0002.87
2022-01-15 17:33:00,,0833.0,5.00,0.00,21.8,21.9,00.0,30.8,23.5,10.0,0000.0,0007.05,0003.29,0002.91
2022-01-15 17:34:00,,0833.0,5.01,0.00,21.8,21.8,00.0,30.8,23.5,10.0,0000.0,0007.12,0003.33,0002.95
2022-01-15 17:35:00,,0833.0,5.00,0.00,21.8,21.7,00.0,30.8,23.5,10.2,0000.0,0007.29,0003.37,0002.98
2022-01-15 17:36:00,,0833.1,5.00,0.00,21.8,21.6,00.0,30.8,23.5,10.1,0000.0,0007.43,0003.41,0003.01
2022-01-15 17:37:00,,0833.0,5.00,0.00,21.8,21.5,00.0,30.8,23.5,10.1,0000.0,0007.47,0003.42,0003.03
2022-01-15 17:38:00,,0833.1,4.99,0.00,21.8,21.4,00.0,30.8,23.4,09.9,0000.0,0007.73,0003.47,0003.05
2022-01-15 17:39:00,,0833.0,5.01,0.00,21.8,21.4,00.0,30.8,23.4,10.1,0000.0,0007.88,0003.52,0003.08
2022-01-15 17:40:00,,0833.0,5.00,0.00,21.8,21.3,00.0,30.8,23.4,10.0,0000.0,0008.01,0003.56,0003.11
2022-01-15 17:41:00,,0832.8,4.99,0.00,21.7,21.3,00.0,30.8,23.4,09.9,0000.0,0008.01,0003.59,0003.14
2022-01-15 17:42:00,,0832.8,5.01,0.00,21.7,21.3,00.0,30.8,23.4,10.0,0000.0,0007.90,0003.57,0003.15
2022-01-15 17:43:00,,0832.8,4.99,0.00,21.7,21.2,00.0,30.8,23.3,10.0,0000.0,0007.89,0003.58,0003.16
2022-01-15 17:44:00,,0832.8,5.00,0.00,21.7,21.2,00.0,30.8,23.3,10.1,0000.0,0007.53,0003.60,0003.18
2022-01-15 17:45:00,,0832.9,5.00,0.00,21.7,21.2,00.0,30.7,23.3,10.2,0000.0,0007.91,0003.64,0003.19
2022-01-15 17:46:00,,0832.9,4.99,0.00,21.7,21.2,00.0,30.7,23.3,10.1,0000.0,0008.09,0003.68,0003.21
2022-01-15 17:47:00,,0832.8,5.00,0.00,21.7,21.2,00.0,30.7,23.3,10.1,0000.0,0008.18,0003.71,0003.23
2022-01-15 17:48:00,,0832.8,5.01,0.00,21.6,21.2,00.0,30.7,23.3,10.1,0000.0,0008.96,0003.76,0003.24
2022-01-15 17:49:00,,0832.8,4.99,0.00,21.6,21.2,00.0,30.7,23.3,10.2,0000.0,0008.65,0003.79,0003.25
2022-01-15 17:50:00,,0832.8,5.00,0.00,21.6,21.2,00.0,30.7,23.3,10.2,0000.0,0008.67,0003.84,0003.27
2022-01-15 17:51:00,,0832.8,5.00,0.00,21.6,21.2,00.0,30.7,23.3,10.2,0000.0,0008.76,0003.87,0003.28
2022-01-15 17:52:00,,0832.8,5.00,0.00,21.6,21.2,00.0,30.7,23.3,10.2,0000.0,0009.05,0003.88,0003.28
2022-01-15 17:53:00,,0832.9,5.01,0.00,21.7,21.2,00.0,30.7,23.3,10.3,0000.0,0009.53,0003.91,0003.28
2022-01-15 17:54:00,,0832.8,5.00,0.00,21.7,21.2,00.0,30.7,23.3,10.2,0000.0,0009.50,0003.93,0003.29
2022-01-15 17:55:00,,0832.8,5.00,0.00,21.7,21.2,00.0,30.7,23.3,10.4,0000.0,0009.41,0003.93,0003.30
2022-01-15 17:56:00,,0832.7,5.00,0.00,21.7,21.2,00.0,30.7,23.4,10.3,0000.0,0008.95,0003.91,0003.29
2022-01-15 17:57:00,,0832.7,5.01,0.00,21.7,21.2,00.0,30.7,23.4,10.3,0000.0,0008.80,0003.91,0003.29
2022-01-15 17:58:00,,0832.7,5.00,0.00,21.7,21.2,00.0,30.7,23.4,10.5,0000.0,0009.03,0003.90,0003.28
2022-01-15 17:59:00,,0832.7,5.01,0.00,21.7,21.3,00.0,30.7,23.4,10.6,0000.0,0008.78,0003.91,0003.29
